Eastover, SC

7:27 AM EDT on May 27, 2017 (GMT -0400)
McEntire Angs

Weather History for KMMT - January, 2014

Change the Weather History Date:

Tuesday, January 14, 2014

  Actual Average Record
Temperature  
Mean Temperature 48 °F -  
Max Temperature 60 °F 53 °F 78 °F (2013)
Min Temperature 36 °F 33 °F 16 °F (2011)
Degree Days  
Heating Degree Days 16    
Moisture  
Dew Point 50 °F    
Average Humidity 95    
Maximum Humidity 100    
Minimum Humidity 63    
Precipitation  
Precipitation 0.23 in - - ()
Sea Level Pressure  
Sea Level Pressure 29.88 in    
Wind  
Wind Speed 4 mph (WSW)    
Max Wind Speed 14 mph    
Max Gust Speed 21 mph    
Visibility 6 miles    
Events Fog , Rain    
Averages and records for this station are not official NWS values.
T = Trace of Precipitation, MM = Missing Value Source: NWS Daily Summary

Daily Weather History Graph

Daily Weather History Graph

Search for Another Location

Airport or City:

Trip Planner

Search our weather history database for the weather conditions in past years. The results will help you decide how hot, cold, wet, or windy it might be!

Date:

Astronomy

Jan. 14, 2014 Rise Set
Actual Time 7:28 AM EST 5:36 PM EST
Civil Twilight 7:01 AM EST 6:03 PM EST
Nautical Twilight 6:30 AM EST 6:34 PM EST
Astronomical Twilight 6:00 AM EST 7:04 PM EST
Moon 4:39 PM EST (1/14) 6:03 AM EST (1/14)
Length of Visible Light 11h 02m
Length of Day
10h 07m
Waxing Gibbous, 98% of the Moon is Illuminated
Jan 14
Waxing Gibbous
Jan 15
Full
Jan 24
Last Quarter
Jan 30
New
Feb 6
First Quarter

Hourly Weather History & Observations

Time (EST) Temp. Dew Point Humidity Pressure Visibility Wind Dir Wind Speed Gust Speed Precip Events Conditions
12:58 AM 51.6 °F 51.4 °F 99% 29.92 in 10.0 mi Calm Calm - 0.06 in Rain Light Rain
1:58 AM 51.4 °F 51.3 °F 99% 29.89 in 10.0 mi North 1.2 mph - 0.01 in   Partly Cloudy
2:48 AM 51.8 °F 51.8 °F 100% 29.87 in 10.0 mi Calm Calm - N/A Rain Light Rain
2:58 AM 51.8 °F 50.0 °F 94% 29.88 in 5.0 mi East 3.5 mph - 0.00 in Rain Light Rain
3:08 AM 50.0 °F 50.0 °F 100% 29.85 in 1.0 mi ESE 4.6 mph - N/A   Scattered Clouds
3:18 AM 50.0 °F 50.0 °F 100% 29.85 in 9.0 mi East 3.5 mph - N/A   Partly Cloudy
3:58 AM 50.5 °F 50.5 °F 100% 29.87 in 10.0 mi NW 3.5 mph - 0.00 in   Mostly Cloudy
4:28 AM 51.8 °F 51.8 °F 100% 29.84 in 2.0 mi Variable 2.3 mph - N/A   Mostly Cloudy
4:38 AM 51.8 °F 51.8 °F 100% 29.83 in 7.0 mi East 4.6 mph - N/A   Mostly Cloudy
4:53 AM 51.8 °F 51.8 °F 100% 29.82 in 2.5 mi North 1.2 mph - N/A   Partly Cloudy
4:58 AM 50.9 °F 50.9 °F 100% 29.83 in 4.0 mi NW 2.3 mph - N/A   Partly Cloudy
5:38 AM 51.8 °F 51.8 °F 100% 29.84 in 9.0 mi WNW 6.9 mph - N/A   Mostly Cloudy
5:58 AM 51.3 °F 51.3 °F 100% 29.83 in 10.0 mi East 4.6 mph - N/A   Overcast
6:08 AM 51.8 °F 51.8 °F 100% 29.82 in 9.0 mi SSE 3.5 mph - N/A   Overcast
6:58 AM 51.3 °F 51.3 °F 100% 29.85 in 7.0 mi SSW 2.3 mph - N/A   Mostly Cloudy
7:08 AM 51.8 °F 51.8 °F 100% 29.83 in 8.0 mi SSE 3.5 mph - N/A   Overcast
7:48 AM 51.8 °F 51.8 °F 100% 29.82 in 5.0 mi SSE 4.6 mph - N/A Rain Light Rain
7:58 AM 51.8 °F 51.8 °F 100% 29.83 in 2.0 mi SSE 3.5 mph - 0.01 in   Light Drizzle
8:08 AM 51.8 °F 51.8 °F 100% 29.83 in 1.5 mi SSW 1.2 mph - N/A   Light Drizzle
8:18 AM 51.8 °F 51.8 °F 100% 29.82 in 1.0 mi WNW 1.2 mph - N/A Rain Light Rain
8:28 AM 53.6 °F 53.6 °F 100% 29.83 in 1.5 mi SSW 2.3 mph - N/A Rain Light Rain
8:38 AM 53.6 °F 53.6 °F 100% 29.83 in 1.0 mi SSW 2.3 mph - N/A   Light Drizzle
8:50 AM 53.6 °F 53.6 °F 100% 29.82 in 2.0 mi SSW 3.5 mph - N/A   Overcast
8:58 AM 53.1 °F 53.1 °F 100% 29.84 in 2.0 mi WSW 3.5 mph - 0.01 in   Overcast
9:08 AM 53.6 °F 53.6 °F 100% 29.83 in 3.0 mi SW 3.5 mph - N/A   Overcast
9:38 AM 53.6 °F 53.6 °F 100% 29.83 in 8.0 mi SW 3.5 mph - N/A   Overcast
9:58 AM 54.3 °F 54.3 °F 100% 29.86 in 5.0 mi WSW 5.8 mph - N/A   Overcast
10:08 AM 53.6 °F 53.6 °F 100% 29.86 in 3.0 mi SW 8.1 mph - N/A Rain Light Rain
10:18 AM 55.4 °F 55.4 °F 100% 29.86 in 5.0 mi WSW 8.1 mph - N/A Rain Light Rain
10:58 AM 55.0 °F 55.0 °F 100% 29.89 in 3.0 mi West 11.5 mph - 0.10 in Rain Light Rain
11:18 AM 55.4 °F 55.4 °F 100% 29.87 in 4.0 mi West 10.4 mph - N/A Rain Light Rain
11:28 AM 55.4 °F 55.4 °F 100% 29.87 in 10.0 mi West 10.4 mph - N/A Rain Light Rain
11:38 AM 55.4 °F 55.4 °F 100% 29.87 in 10.0 mi West 10.4 mph - N/A Rain Light Rain
11:58 AM 55.8 °F 55.8 °F 100% 29.88 in 10.0 mi West 8.1 mph - 0.03 in Rain Light Rain
12:12 PM 57.2 °F 55.4 °F 94% 29.85 in 6.0 mi WNW 10.4 mph - N/A Rain Light Rain
12:43 PM 57.2 °F 53.6 °F 88% 29.86 in 10.0 mi WNW 12.7 mph 20.7 mph N/A   Mostly Cloudy
12:58 PM 56.7 °F 52.9 °F 87% 29.87 in 10.0 mi WNW 13.8 mph 20.7 mph 0.01 in   Mostly Cloudy
1:38 PM 57.2 °F 51.8 °F 82% 29.86 in 10.0 mi WNW 11.5 mph - N/A   Mostly Cloudy
1:58 PM 57.6 °F 50.9 °F 78% 29.88 in 10.0 mi WNW 9.2 mph - N/A   Mostly Cloudy
2:18 PM 59.0 °F 51.8 °F 77% 29.87 in 10.0 mi WNW 8.1 mph - N/A   Overcast
2:28 PM 57.2 °F 50.0 °F 77% 29.87 in 10.0 mi West 8.1 mph - N/A   Overcast
2:58 PM 60.1 °F 49.5 °F 68% 29.88 in 10.0 mi WNW 6.9 mph - N/A   Scattered Clouds
3:58 PM 60.1 °F 47.5 °F 63% 29.91 in 10.0 mi NNW 9.2 mph - N/A   Scattered Clouds
4:58 PM 57.2 °F 48.2 °F 72% 29.93 in 10.0 mi NW 5.8 mph - N/A   Partly Cloudy
5:58 PM 52.2 °F 48.2 °F 86% 29.95 in 10.0 mi East 2.3 mph - N/A   Partly Cloudy
6:58 PM 47.3 °F 47.1 °F 99% 29.96 in 10.0 mi SE 2.3 mph - N/A Fog Shallow Fog
7:58 PM 44.2 °F 44.1 °F 99% 29.99 in 10.0 mi NE 1.2 mph - N/A Fog Shallow Fog
8:58 PM 41.2 °F 41.0 °F 99% 30.00 in 7.0 mi Calm Calm - N/A Fog Patches of Fog
9:58 PM 41.0 °F 39.2 °F 93% 30.00 in 7.0 mi ENE 2.3 mph - N/A Fog Patches of Fog
10:28 PM 39.2 °F 39.2 °F 100% 30.00 in 0.8 mi Calm Calm - N/A   Clear
10:58 PM 39.2 °F 39.2 °F 100% 30.00 in 0.8 mi Calm Calm - N/A   Clear
11:23 PM 37.4 °F 35.6 °F 93% 30.00 in 0.5 mi Calm Calm - N/A Fog Fog
11:30 PM 37.4 °F 37.4 °F 100% 30.00 in 0.8 mi Calm Calm - N/A   Clear
11:39 PM 37.4 °F 37.4 °F 100% 30.00 in 0.5 mi Calm Calm - N/A Fog Fog
11:58 PM 36.9 °F 36.7 °F 99% 29.99 in 0.8 mi Calm Calm - N/A   Clear